Location: Unspecified
(0.0000°N, 0.0000°E)
Time: 16:36:49
(UTC+00:00)

BUGSAT 1 - Visible Passes

Search period start: 28 May 2023 00:00
Search period end: 07 June 2023 00:00
Orbit: 549 x 588 km, 98.1° (Epoch: 27 May)

Date Brightness Start Highest point End Pass type
(mag) Time Alt. Az. Time Alt. Az. Time Alt. Az.
28 May ? 19:17:21 10° SSW 19:20:29 23° WSW 19:23:37 10° NW visible
29 May ? 19:18:51 10° SSW 19:21:55 22° WSW 19:25:00 10° NW visible
30 May ? 19:20:22 10° SSW 19:23:21 21° WSW 19:26:22 10° NW visible
31 May ? 19:21:51 10° SSW 19:24:48 20° WSW 19:27:44 10° NW visible
01 Jun ? 19:23:21 10° SSW 19:26:12 19° WSW 19:29:05 10° NW visible
02 Jun ? 19:24:50 10° SSW 19:27:37 19° WSW 19:30:26 10° WNW visible
03 Jun ? 19:26:18 10° SW 19:29:02 18° WSW 19:31:45 10° WNW visible
04 Jun ? 19:27:47 10° SW 19:30:25 17° WSW 19:33:05 10° WNW visible
05 Jun ? 19:29:16 10° SW 19:31:49 17° WSW 19:34:24 10° WNW visible
06 Jun ? 19:30:44 10° SW 19:33:12 16° WSW 19:35:41 10° WNW visible
